User: anonymous   Login
Location: Caltech
(34.1382°N, 118.1253°W)
Time: 03:20:54
(UTC-07:00)
Language:

ITAMSAT 1 - Orbit

View from above orbital plane
View from above orbital plane
View from above satellite
View from above satellite

Ground track
Ground track

The orbit data is extracted from the following two-line orbital elements,

1 22826U 93061D   15213.09397134  .00000038  00000-0  31728-4 0  9993
2 22826 098.7059 163.3851 0009176 161.9404 198.2106 14.30212974139503
Epoch (UTC): 01 August 2015 02:15:19
Eccentricity: 0.0009176
inclination: 98.7059°
perigee height: 784 km
apogee height: 797 km
right ascension of ascending node: 163.3851°
argument of perigee: 161.9404°
revolutions per day: 14.30212974
mean anomaly at epoch: 198.2106°
orbit number at epoch: 13950

The dashed part of the orbit path shows where the satellite is in the earth's shadow,  

DLR